Terminal Aerodrome Forecast
Issued by NWS

Home | Current Version | Previous Version | Text Only | Print | Product List | Glossary On
Versions: 1 2 3 4 5 6 7 8 9 10 11 12 13 14 15 16 17 18 19 20 21 22 23 24 25
535
FTUS43 KDLH 220316 AAA
TAFBRD
TAF AMD
KBRD 220316Z 2203/2224 03004KT 1/4SM FG VV003
     FM221600 34003KT 1 1/2SM BR OVC003
     FM222100 31006KT 4SM BR OVC007=

USA.gov is the U.S. government's official web portal to all federal, state and local government web resources and services.